SCP
1 1 1 1 0 0 0 0 0 0 0 0 0 0 0 0 0 0 0 0 0 0 0 0 0 0 0 0 0 0 0 0 0 0 0 0 0 0 0 0 0 0 0
1 1 1 1 0 0 0 0 0 0 0 0 0 0 0 0 0 0 0 0 0 0 0 0 0 0 0 0 0 0 0 0 0 0 0 0 0 0 0 0 0 0 0
1 1 1 1 0 0 0 0 0 0 0 0 0 0 0 0 0 0 0 0 0 0 0 0 0 0 0 0 0 0 0 0 0 0 0 0 0 0 0 0 0 0 0
1 1 1 1 1 0 0 0 0 0 0 0 0 0 0 0 0 0 0 0 0 0 0 0 0 0 0 0 0 0 -0 -0 -0 -0 0 0 0 0 0 0 0 0 0
1 1 1 1 1 0 0 0 0 0 0 0 0 0 0 0 0 0 0 0 0 0 0 0 0 0 0 0 0 0 -0 -0 -0 -0 0 0 0 0 0 0 0 0 0
1 1 1 1 1 0 0 0 0 0 0 0 0 0 0 0 0 0 0 0 0 0 0 0 0 0 0 0 0 0 -0 -0 -0 0 0 0 0 0 0 0 0 0 0
1 1 1 1 1 1 0 0 0 0 0 0 0 0 0 0 0 0 0 0 0 0 0 0 0 0 0 0 0 0 -0 -0 -0 0 0 0 0 0 0 0 0 0 0
1 1 1 1 1 1 1 0 0 0 0 0 0 0 0 0 0 0 0 0 0 0 0 0 0 0 0 0 0 0 0 -0 -0 0 0 0 0 0 0 0 0 0 0
2 1 1 1 1 1 1 1 1 1 0 0 0 0 0 0 0 0 1 1 1 1 1 0 0 0 0 0 0 0 0 -0 -0 -0 0 0 1 1 0 0 0 0 0
2 2 1 1 1 1 1 1 1 1 1 1 1 1 1 1 1 1 1 1 1 1 1 1 1 1 1 0 0 0 0 0 -0 0 0 1 1 1 1 0 0 0 0
2 2 1 1 1 1 1 1 1 1 1 1 1 1 1 1 1 1 1 1 1 1 1 1 1 1 1 1 0 0 0 0 0 0 0 1 1 1 1 1 0 0 0
2 2 2 1 1 1 1 1 1 1 1 1 1 1 1 1 1 1 1 1 1 1 1 1 1 1 1 1 1 1 0 0 0 0 0 1 1 1 1 1 1 0 0
2 2 2 2 2 1 1 1 1 1 1 1 1 2 2 1 1 1 2 2 2 2 1 1 1 1 1 1 1 1 1 0 0 0 1 1 2 1 1 1 1 1 0
2 2 2 3 2 2 2 2 1 1 2 2 2 2 2 2 2 2 2 2 2 2 2 1 1 1 1 1 1 1 1 0 0 0 1 1 2 1 1 1 1 1 0
3 3 3 3 3 3 2 2 2 2 2 2 3 3 3 3 3 2 2 3 2 2 2 2 1 1 1 1 1 1 1 1 0 1 1 1 1 1 1 1 1 1 1
4 3 3 3 3 3 3 2 2 2 2 2 3 3 3 3 3 3 3 3 2 2 2 2 1 1 1 1 1 1 1 1 1 1 1 1 1 1 1 1 1 1 1
4 4 4 3 3 3 3 2 2 2 2 2 3 3 3 3 3 3 2 2 2 2 2 2 1 1 1 1 1 1 1 1 1 1 1 1 1 1 1 1 1 1 1
4 4 4 3 3 3 3 2 2 2 2 2 2 2 2 2 2 2 2 2 2 2 2 1 1 1 1 1 1 1 1 1 1 1 1 1 1 1 1 1 1 1 1
4 4 3 3 3 3 2 2 2 2 2 2 2 2 2 1 1 1 2 2 2 1 1 1 1 1 1 1 1 1 1 1 1 1 1 1 1 1 1 1 1 1 1
2 2 3 2 2 2 2 2 2 2 2 2 2 2 1 1 1 1 1 1 1 1 1 1 1 1 1 1 1 1 1 1 1 1 1 1 1 1 1 1 1 1 0
2 2 2 2 2 2 2 2 2 2 2 1 1 1 1 1 1 1 1 1 1 1 1 1 1 1 0 0 0 0 0 0 0 1 1 1 1 1 1 1 1 1 1
1 1 1 1 2 2 2 2 2 1 1 1 1 1 1 1 1 1 1 1 1 1 1 1 1 0 0 0 0 0 0 0 0 0 0 0 0 0 1 1 1 1 1
1 1 1 1 1 1 1 1 1 1 1 1 1 1 1 1 1 1 1 1 1 1 1 0 0 0 0 0 0 0 0 0 0 0 0 0 0 0 0 1 1 1 1
0 1 1 1 1 1 1 1 1 1 1 1 1 1 1 1 0 1 1 1 1 1 1 0 0 0 0 0 0 0 0 0 0 0 0 0 0 0 0 0 1 1 1
0 0 1 1 1 1 1 1 1 1 1 1 1 1 1 0 0 0 0 0 0 0 0 0 0 0 0 0 0 0 0 0 0 0 0 0 0 0 0 0 1 1 1
0 0 1 1 1 1 1 1 1 1 1 1 1 1 1 0 0 0 0 0 0 0 0 0 0 1 1 1 0 0 0 0 0 0 0 0 0 0 0 1 1 1 1
Wind_Speed
18 19 20 17 15 14 13 13 13 13 12 12 11 11 10 10 10 10 10 10 10 10 10 9 9 8 9 10 10 11 11 11 12 13 14 13 12 10 9 8 10 13 14
21 19 19 17 15 14 13 13 13 13 12 12 11 11 11 10 10 9 9 9 9 9 9 9 9 9 9 9 9 9 9 9 10 11 13 12 11 10 9 9 12 11 14
21 19 18 17 15 14 13 13 13 12 12 12 12 11 11 10 10 9 9 8 8 8 9 8 9 9 9 9 8 8 7 7 8 9 10 9 10 10 11 14 16 14 13
20 17 16 18 15 14 13 13 12 12 12 12 11 11 11 10 9 9 8 8 8 8 8 8 8 8 9 8 7 6 5 5 5 6 5 5 9 11 11 12 13 12 12
18 16 17 18 16 15 13 12 12 12 12 12 11 11 10 10 9 9 8 8 8 8 7 8 8 8 7 7 6 5 4 4 4 7 4 5 8 11 11 10 11 11 11
18 18 18 18 16 15 14 12 12 12 12 11 11 10 10 10 9 9 9 8 8 8 8 7 7 7 7 7 6 5 5 5 6 6 3 8 9 11 11 10 10 10 10
18 18 18 18 17 15 14 13 12 11 11 11 10 10 10 10 9 9 9 8 8 8 8 8 7 8 7 7 6 6 6 6 8 5 2 8 10 13 12 10 9 9 9
19 19 16 17 16 15 14 13 12 11 11 10 10 10 10 9 9 9 9 9 9 9 8 8 8 8 8 8 7 7 7 9 9 8 5 9 14 15 13 11 9 9 9
20 18 15 14 13 14 13 12 11 11 10 10 10 10 10 10 10 10 9 10 10 10 10 10 10 10 10 9 9 9 9 10 9 7 5 8 16 16 14 12 11 10 10
18 17 15 14 12 11 11 12 12 11 11 11 11 11 11 11 11 12 11 12 12 12 12 11 11 11 11 11 11 11 11 9 9 10 4 9 19 18 16 14 12 12 11
14 14 14 14 12 11 12 13 13 12 11 11 10 12 11 9 11 11 15 15 16 14 14 13 13 13 12 12 14 14 11 7 9 8 4 13 19 18 17 15 14 13 12
11 12 11 12 11 10 9 10 9 9 10 10 8 10 9 8 7 10 14 18 18 17 15 15 14 13 11 9 12 15 8 10 10 7 5 18 19 19 18 16 14 13 13
7 7 9 10 7 7 5 8 5 5 7 10 10 9 8 7 6 6 4 9 11 13 10 11 12 9 9 8 7 9 10 9 7 6 6 19 19 19 18 16 15 14 14
6 5 6 8 5 1 1 2 3 3 3 5 7 8 6 4 4 3 2 3 6 6 7 6 6 9 9 9 9 9 11 8 5 3 6 16 16 17 18 17 16 15 14
5 3 4 5 5 2 2 2 2 1 1 1 0 3 3 2 3 3 2 2 2 3 5 6 5 7 7 8 7 8 8 9 7 5 6 15 15 16 17 18 17 16 16
5 4 5 5 5 3 1 2 3 3 2 3 2 2 1 1 1 2 2 3 3 3 3 4 6 5 5 5 7 7 7 7 6 5 5 10 16 17 17 17 18 18 17
6 6 6 4 4 3 1 2 3 2 2 2 2 2 2 2 2 2 3 3 4 4 4 4 5 5 5 7 8 8 6 6 5 6 6 7 9 14 16 17 17 17 18
9 8 7 5 5 3 2 2 3 3 3 2 2 2 3 3 3 3 3 4 4 4 4 5 5 5 5 6 6 5 6 5 8 7 6 6 6 8 13 18 18 17 18
8 7 7 6 6 4 3 2 2 2 2 2 2 2 2 3 5 4 3 3 3 4 4 6 5 4 5 6 6 6 6 6 7 8 7 7 7 7 7 14 18 18 18
7 6 5 5 5 4 2 1 1 2 2 2 1 1 2 3 4 3 3 4 4 3 4 4 4 4 4 5 7 6 6 7 6 6 7 7 8 9 9 10 11 13 18
6 5 4 4 3 2 2 3 3 2 2 2 1 1 2 3 3 3 3 3 3 4 4 5 4 5 5 4 4 4 5 6 6 6 6 6 8 9 8 8 9 7 8
5 4 3 3 4 3 3 2 2 3 3 1 1 1 1 2 2 3 2 2 3 3 3 3 3 3 4 4 3 3 3 3 4 8 6 6 7 6 7 9 8 8 7
4 3 4 3 3 4 4 3 4 2 2 2 2 1 1 2 2 2 3 2 2 3 3 3 3 4 4 3 4 3 2 3 3 4 6 6 5 4 5 5 8 8 6
2 2 3 2 1 2 4 4 6 5 4 4 2 1 1 2 2 2 2 2 2 2 3 3 2 3 4 3 3 3 3 1 1 1 3 4 5 5 4 5 6 7 7
1 0 1 2 0 1 3 4 5 5 5 5 5 4 3 3 3 3 2 2 2 2 2 3 3 3 3 3 2 2 3 3 3 2 3 3 3 4 4 4 3 5 6
2 2 1 0 1 1 3 4 5 6 6 6 7 6 5 3 3 3 3 1 1 2 3 3 3 4 3 3 2 2 2 3 3 3 3 4 4 4 5 4 4 4 5
Wind_Direction
124 134 139 137 135 135 137 141 142 142 139 137 134 130 125 121 117 113 110 108 108 107 107 106 104 102 96 90 87 86 87 89 92 95 96 93 91 87 82 92 116 97 101
125 134 139 137 137 137 139 142 143 143 142 141 139 138 135 132 129 125 120 117 116 114 113 111 110 108 104 100 99 98 100 103 109 113 115 106 96 85 73 74 94 105 106
124 133 139 138 138 137 139 142 144 145 146 146 145 144 142 140 138 135 132 129 124 120 118 117 115 114 112 111 111 111 114 124 132 140 152 130 110 95 86 89 99 107 107
127 139 141 141 140 140 140 142 146 148 149 150 150 150 149 148 147 146 144 139 133 128 126 128 126 123 122 122 123 125 135 150 163 183 201 142 125 109 102 102 106 110 111
132 137 136 145 144 143 143 144 148 151 153 155 156 156 156 156 156 155 152 148 145 142 140 140 137 135 135 136 138 147 170 199 218 236 230 120 109 124 118 116 116 117 118
136 134 140 147 147 147 148 149 152 154 156 159 161 161 161 162 163 163 161 160 159 156 155 154 151 150 153 155 161 174 205 234 254 241 205 126 123 138 134 133 131 129 128
138 132 143 148 149 151 153 156 158 160 162 165 167 168 170 172 173 174 174 173 170 169 170 169 168 167 169 174 183 195 219 246 259 267 189 126 134 145 146 148 146 144 143
134 133 140 148 151 154 158 161 164 167 169 172 175 177 180 183 185 188 187 185 183 183 183 182 183 182 184 188 198 210 227 251 249 252 189 139 146 152 154 158 160 160 158
132 131 144 149 154 158 162 167 171 174 177 181 184 188 191 194 196 199 200 197 196 195 195 196 196 195 196 199 206 216 231 246 272 280 237 145 155 157 160 167 172 173 172
130 137 148 152 156 163 168 175 178 183 187 191 195 199 202 206 210 211 209 206 206 204 204 206 207 207 206 207 211 218 228 246 255 263 245 158 161 162 165 173 180 183 183
132 139 150 152 160 172 176 174 180 190 196 199 204 209 211 215 214 210 217 208 206 208 209 211 214 214 214 215 217 219 223 232 239 243 241 164 166 167 169 176 185 190 191
139 142 150 150 164 180 183 157 184 191 190 202 206 200 207 223 233 227 208 205 206 208 211 216 218 219 218 221 216 216 220 225 243 239 203 164 170 171 173 178 186 193 196
141 147 149 147 165 182 174 157 191 195 179 198 215 201 205 219 229 236 208 192 202 208 213 217 218 220 220 222 217 199 217 226 226 238 177 167 172 176 178 182 189 196 200
149 156 147 141 153 200 155 163 190 206 182 198 200 210 209 210 242 256 243 188 192 202 207 215 210 216 224 227 224 206 209 223 232 221 171 175 178 182 183 186 192 199 203
130 129 100 105 120 117 17 344 317 308 293 253 194 203 217 213 233 262 281 279 245 219 202 212 218 225 225 228 232 219 215 222 233 219 173 181 185 190 189 191 196 202 206
112 103 93 82 89 84 33 326 319 319 338 341 349 348 328 286 266 265 270 272 268 261 245 216 223 224 227 231 234 233 229 230 232 230 179 186 196 197 195 196 199 204 207
74 71 73 84 75 70 13 323 304 306 323 337 338 334 317 292 279 271 262 258 258 258 258 249 239 232 226 230 231 229 227 233 236 237 213 183 194 202 203 202 202 204 208
60 60 53 48 57 50 20 336 314 322 329 331 320 317 326 312 288 268 255 250 256 259 252 245 241 235 233 229 227 225 225 225 234 231 221 197 192 203 208 209 206 205 208
59 59 59 48 41 34 14 338 311 320 321 317 319 318 317 308 294 275 258 256 258 258 252 251 235 232 239 236 229 221 220 222 221 227 223 213 204 203 198 207 208 207 209
66 60 57 61 42 16 9 334 313 312 298 288 299 322 316 305 300 301 276 266 263 260 260 255 248 237 237 233 240 233 218 219 208 214 218 219 211 206 204 199 197 209 211
76 71 64 52 44 18 20 343 336 324 302 297 292 302 301 304 312 306 290 283 268 258 256 249 239 242 242 231 232 243 236 226 213 210 210 216 212 206 207 190 183 192 202
88 82 84 57 34 16 19 319 286 298 295 274 305 312 302 310 310 296 305 302 282 265 262 265 245 247 248 227 214 223 224 225 230 218 200 207 216 200 198 193 183 183 191
95 78 65 53 28 12 344 326 332 310 295 315 320 292 309 279 271 297 304 303 305 292 269 264 250 233 248 240 218 215 218 213 203 213 208 200 194 193 194 187 180 177 186
121 130 122 100 35 355 332 341 333 319 320 317 311 305 300 276 266 264 282 292 296 295 297 282 273 251 243 243 233 228 248 280 212 180 224 193 181 189 201 194 181 168 181
328 10 136 133 113 326 316 305 310 315 321 321 325 312 298 271 244 237 238 263 301 302 302 305 306 286 254 244 243 231 240 250 236 204 208 185 179 185 193 190 163 170 177
270 283 307 321 236 275 291 300 300 302 304 304 300 291 283 270 247 227 221 200 272 297 309 301 296 292 287 271 261 258 249 245 232 220 199 190 190 198 189 175 168 164 162